Wind_Speed
8 6 6 5 4 5 6 5 3 4 3 3 3 4 5 5 6 6 6 7 7 8 8 9 9 9 9 8 8 7 4 6
8 6 4 3 5 5 4 5 5 5 4 4 5 6 8 7 6 7 9 9 8 9 9 10 10 9 10 9 9 7 3 8
7 5 4 2 2 7 7 5 7 7 8 7 8 6 7 11 11 9 10 11 12 12 11 12 12 13 12 11 10 3 9 7
6 5 2 2 1 1 0 1 1 1 1 3 4 4 6 7 13 15 14 13 13 13 13 13 11 7 14 16 9 10 9 9
7 5 3 3 1 1 1 2 2 3 3 2 4 6 6 9 10 14 13 17 11 14 15 11 10 10 9 11 11 11 10 11
8 6 3 2 2 2 2 2 3 3 4 6 5 6 7 7 8 10 11 10 12 12 12 13 14 12 14 15 14 13 11 12
8 7 5 2 2 2 1 2 3 5 4 5 4 4 6 7 9 9 10 11 12 13 13 14 15 15 15 14 14 14 14 13
9 8 7 5 2 3 2 3 2 3 4 4 5 5 6 7 9 10 10 12 13 14 15 15 16 16 17 17 16 15 14 15
10 9 8 7 4 4 3 3 4 4 4 5 4 5 6 8 9 11 11 13 15 16 17 17 18 17 18 18 18 17 15 17
9 9 9 8 6 5 4 5 4 5 5 4 6 8 10 12 11 13 14 15 16 17 19 20 21 21 21 20 19 20 18 18
10 10 10 8 7 6 7 6 5 5 6 7 9 10 11 13 14 16 17 17 19 20 22 23 24 25 24 24 23 23 22 21
7 8 8 8 7 7 6 7 7 8 9 9 11 11 11 12 14 16 18 20 23 25 27 28 29 30 31 30 30 28 27 26
1 2 6 3 5 6 7 7 8 9 10 12 11 11 12 16 16 18 22 23 24 26 28 29 31 30 33 33 35 33 34 33
6 4 3 2 2 3 6 8 7 8 6 9 12 16 27 27 22 22 21 22 24 24 25 29 31 30 32 33 36 35 34 38
8 7 6 4 4 4 5 7 8 11 14 20 19 26 23 21 21 22 22 22 23 25 25 27 30 32 30 32 30 34 31 32
7 6 5 6 6 5 8 10 15 18 19 20 18 18 19 20 21 20 22 22 24 24 23 26 26 31 30 31 34 37 38 37
6 6 7 8 10 13 12 13 15 16 16 17 18 17 18 20 20 22 24 24 23 22 23 23 22 25 27 27 31 34 26 24
8 9 10 11 12 12 13 13 15 16 17 18 17 20 21 22 23 23 23 21 20 19 19 17 21 19 16 18 22 23 24 21
10 11 13 14 14 14 14 15 16 16 18 19 22 24 25 26 24 22 19 18 19 18 16 14 20 24 23 23 22 23 24 22
13 15 16 17 16 16 16 16 17 18 19 21 23 24 25 22 20 18 16 16 14 13 16 23 25 24 21 17 14 14 12 11
Wind_Direction
127 121 104 85 59 32 13 26 24 29 14 5 1 354 348 341 330 327 325 326 325 320 316 315 312 307 304 302 301 300 295 292
151 139 130 76 13 30 30 35 34 25 19 9 358 353 349 349 340 346 333 332 329 328 326 323 315 310 307 310 312 322 22 269
149 149 133 95 75 343 24 14 19 20 19 16 34 28 357 352 317 326 325 323 323 324 323 319 315 314 319 312 313 349 273 282
174 149 140 85 34 15 328 291 50 46 19 2 20 330 304 312 324 332 331 324 322 319 317 319 325 337 311 320 346 277 291 275
177 151 129 96 319 340 334 316 296 303 331 336 311 324 321 332 314 329 335 322 335 320 314 321 277 285 277 276 281 287 290 277
172 170 173 118 89 358 310 318 269 293 274 317 323 327 314 314 312 304 307 305 298 302 295 292 293 288 287 284 280 275 272 268
190 202 206 218 354 325 332 276 292 259 310 298 320 322 310 315 307 315 308 307 305 302 297 293 288 287 285 279 278 275 270 262
205 213 213 222 241 290 286 308 290 319 294 282 311 330 312 318 312 309 313 307 302 297 293 289 285 282 278 278 271 263 263 259
216 220 223 231 241 269 281 274 284 282 287 301 312 333 311 312 309 307 308 305 302 305 302 297 293 291 286 283 274 271 261 252
227 235 231 232 234 253 264 269 269 276 277 273 296 314 312 309 305 299 296 296 301 299 297 295 291 287 284 279 274 271 264 255
249 251 247 241 248 251 262 268 285 282 276 297 300 303 302 296 293 293 291 294 292 291 289 285 285 283 281 277 272 265 261 258
253 251 241 232 233 261 271 280 287 288 291 291 291 295 296 295 294 295 296 294 291 289 283 282 278 278 278 276 272 268 262 256
93 186 204 234 257 269 273 280 279 286 282 289 312 306 312 306 303 300 298 294 287 280 282 282 278 276 276 273 272 267 260 253
72 82 54 29 304 285 292 291 293 294 293 302 306 293 308 310 300 303 297 292 289 284 278 278 278 276 273 275 276 273 262 255
72 67 52 27 40 328 322 316 303 299 284 304 298 300 303 303 304 305 299 295 292 286 282 278 279 277 273 271 273 271 272 268
62 54 30 9 348 339 327 312 301 297 298 293 303 306 305 308 310 306 300 296 292 289 289 281 279 281 281 273 273 272 274 275
36 18 353 342 333 323 318 310 308 311 305 304 310 308 308 310 308 303 299 301 295 292 292 288 279 277 280 278 266 263 273 287
359 348 335 327 325 325 320 318 315 313 311 315 311 311 310 311 310 307 302 302 297 294 281 277 272 274 280 282 280 281 268 277
334 327 324 323 319 317 315 314 314 313 316 312 314 316 316 314 309 311 307 294 285 282 288 286 298 303 298 294 285 277 275 279
320 324 321 318 315 312 312 312 309 310 311 312 311 312 313 315 311 300 288 276 282 292 298 300 300 295 291 288 291 291 292 296
Height
1551 1550 1550 1550 1551 1551 1552 1550 1552 1551 1551 1551 1551 1551 1550 1550 1549 1548 1548 1548 1547 1547 1547 1545 1545 1544 1544 1544 1543 1543 1544 1546
1551 1552 1554 1554 1550 1550 1551 1552 1551 1551 1552 1552 1551 1551 1551 1550 1549 1549 1549 1547 1547 1547 1545 1544 1544 1544 1543 1542 1542 1542 1541 1544
1554 1554 1555 1555 1556 1551 1552 1552 1552 1552 1553 1553 1553 1555 1554 1552 1549 1549 1547 1547 1547 1545 1544 1543 1543 1542 1541 1541 1540 1540 1542 1543
1554 1553 1554 1554 1555 1554 1554 1554 1555 1556 1556 1555 1557 1555 1553 1552 1549 1548 1547 1546 1545 1543 1543 1542 1542 1543 1542 1540 1539 1541 1539 1540
1554 1554 1554 1553 1555 1555 1555 1556 1556 1556 1555 1554 1555 1554 1554 1554 1552 1548 1547 1546 1546 1544 1543 1542 1543 1540 1540 1539 1539 1538 1538 1537
1553 1554 1553 1552 1554 1555 1555 1555 1556 1556 1555 1553 1554 1554 1553 1553 1552 1551 1550 1549 1547 1546 1544 1542 1538 1537 1536 1534 1534 1533 1534 1534
1552 1554 1552 1553 1553 1554 1553 1554 1555 1554 1554 1553 1552 1552 1551 1551 1550 1549 1547 1546 1545 1544 1542 1540 1538 1536 1534 1532 1531 1530 1529 1528
1552 1552 1552 1552 1553 1553 1553 1553 1554 1553 1553 1552 1550 1549 1549 1548 1548 1547 1546 1545 1544 1541 1539 1537 1535 1534 1531 1529 1526 1525 1525 1524
1550 1551 1551 1550 1552 1552 1553 1553 1552 1553 1552 1550 1549 1547 1547 1546 1546 1545 1545 1543 1540 1538 1537 1534 1533 1531 1529 1526 1523 1520 1519 1519
1549 1550 1550 1550 1551 1551 1552 1552 1551 1551 1550 1550 1548 1546 1545 1544 1544 1543 1542 1539 1537 1536 1534 1533 1531 1528 1525 1522 1521 1518 1516 1513
1547 1549 1549 1550 1550 1550 1550 1549 1548 1549 1549 1549 1548 1546 1543 1541 1541 1539 1537 1535 1533 1531 1529 1527 1525 1523 1520 1517 1514 1512 1511 1509
1545 1546 1547 1548 1547 1547 1548 1548 1548 1548 1548 1547 1544 1542 1540 1538 1537 1534 1532 1530 1528 1526 1523 1521 1519 1517 1513 1511 1509 1507 1504 1503
1543 1545 1544 1545 1547 1547 1547 1547 1546 1545 1544 1541 1540 1540 1538 1535 1531 1529 1528 1524 1522 1519 1516 1513 1511 1510 1506 1502 1499 1498 1496 1495
1543 1544 1543 1544 1545 1544 1542 1542 1542 1542 1541 1539 1538 1535 1532 1530 1526 1523 1520 1517 1514 1511 1509 1507 1504 1504 1499 1497 1491 1488 1487 1484
1543 1543 1543 1542 1542 1543 1542 1542 1541 1541 1538 1536 1533 1529 1526 1522 1520 1516 1513 1511 1508 1506 1504 1501 1497 1494 1494 1492 1487 1481 1480 1479
1544 1544 1544 1542 1541 1541 1540 1540 1538 1537 1533 1529 1526 1524 1522 1518 1514 1511 1508 1504 1501 1499 1498 1495 1493 1487 1486 1484 1481 1477 1473 1469
1544 1544 1543 1541 1539 1537 1536 1535 1533 1530 1528 1524 1521 1519 1516 1513 1510 1506 1502 1498 1495 1492 1490 1488 1485 1482 1479 1474 1469 1466 1467 1465
1543 1542 1542 1540 1538 1536 1534 1531 1529 1527 1524 1520 1517 1514 1511 1508 1503 1499 1495 1492 1490 1487 1483 1480 1478 1476 1473 1469 1465 1463 1462 1459
1543 1542 1540 1539 1536 1534 1531 1529 1526 1524 1520 1517 1513 1509 1505 1502 1498 1493 1491 1487 1484 1480 1479 1476 1473 1471 1467 1465 1462 1460 1458 1455
1541 1539 1537 1535 1533 1530 1527 1525 1522 1519 1516 1513 1509 1505 1500 1495 1492 1488 1484 1480 1478 1477 1474 1472 1470 1467 1464 1461 1459 1457 1455 1453